Flag for Canada Weather past 2 weeks in Quesnel, British Columbia, Canada

Now
45 °F

Sunny.


Feels Like: 40 °F
Forecast: 36 / 52 °F
Wind: 9 mph from South

Location: Quesnel Airport

Current Time: Oct 23, 2014 at 11:23:38 AM

Latest Report: Oct 23, 2014 at 10:00 AM


Visibility: 9 mi

Pressure: 29.65 "Hg

Humidity: 93%

Dew point: 43 °F

Location of QuesnelLocation

Historic Weather in Quesnel — Graph

°F

Quesnel temperature yesterday

Maximum temperature yesterday: 61 °F (at 2:00 PM)
Minimum temperature yesterday: 54 °F (at 10:00 PM)
Average temperature yesterday: 57 °F

Past Weeks' High & Low Weather Summary

 TemperatureHumidityPressure
High61 °F (Oct 22, 2:00 PM)100% (Oct 23, 2:57 AM)29.65 "Hg (Oct 23, 2:57 AM)
Low43 °F (Oct 23, 6:00 AM)36% (Oct 22, 3:00 PM)29.40 "Hg (Oct 23, 12:00 AM)
Average51 °F72%29.49 "Hg
* Reported Oct 22 2:00 PM — Oct 23 10:00 AM, Quesnel, Weather by CustomWeather, © 2014

Note: Actual official high and low records may vary slightly from our data, if they occured in-between our weather recording intervals... More about our weather records

Advertising

Quesnel weather history for previous 24 hours

 ConditionsComfort  
Time TempWeatherWind HumidityBarometerVisibility
10:00 AM
Oct 23
45 °FSunny.9 mph93%29.65 "Hg9 mi
9:00 AM43 °FPartly sunny.8 mph100%29.64 "Hg9 mi
8:00 AM43 °FPassing clouds.5 mph100%29.61 "Hg9 mi
7:00 AM43 °FOvercast.5 mph100%29.58 "Hg9 mi
6:00 AM43 °FLight rain. Overcast.6 mph100%29.54 "Hg9 mi
5:00 AM45 °FRain. Overcast.9 mph87%29.49 "Hg9 mi
4:00 AM45 °FRain. Fog.2 mph100%29.45 "Hg4 mi
3:00 AM45 °FLight rain. Fog.2 mph100%29.43 "Hg3 mi
2:57 AM45 °FLight rain. Fog.No wind100%29.43 "Hg2 mi
2:00 AM46 °FLight rain. Fog.2 mph93%29.42 "Hg6 mi
1:01 AM52 °FLight rain. Overcast.12 mph62%29.41 "Hg9 mi
12:00 AM54 °FPassing clouds.8 mph58%29.40 "Hg9 mi
11:00 PM
Oct 22
54 °FPartly cloudy.8 mph58%29.42 "Hg9 mi
10:00 PM54 °FOvercast.8 mph58%29.44 "Hg9 mi
9:00 PM55 °FPassing clouds.10 mph55%29.46 "Hg9 mi
8:00 PM55 °FPassing clouds.12 mph55%29.45 "Hg9 mi
7:00 PM55 °FPassing clouds.10 mph51%29.45 "Hg9 mi
6:00 PM57 °FPartly sunny.7 mph44%29.45 "Hg9 mi
5:00 PM57 °FLight rain. Mostly cloudy.7 mph55%29.47 "Hg9 mi
4:00 PM61 °FSunny.9 mph39%29.48 "Hg9 mi
3:00 PM61 °FSunny.15 mph36%29.49 "Hg9 mi
2:00 PM61 °FSunny.13 mph39%29.52 "Hg9 mi
Weather by CustomWeather, © 2014

See weather overviewHow to use our weather pages